Time,TemperatureF,DewpointF,PressureIn,WindDirection,WindDirectionDegrees,WindSpeedMPH,WindSpeedGustMPH,Humidity,HourlyPrecipIn,Conditions,Clouds,dailyrainin,SoftwareType,DateUTC
2013-05-28 00:02:00,63.0,58.4,29.87,SE,134,1.0,2.0,85,0.00,,,0.00,Wunderground v.1.15,2013-05-28 07:02:00,
2013-05-28 00:12:00,62.8,57.9,29.86,South,178,1.0,1.0,84,0.00,,,0.00,Wunderground v.1.15,2013-05-28 07:12:00,
2013-05-28 00:22:00,62.7,58.1,29.86,South,173,2.0,2.0,85,0.00,,,0.00,Wunderground v.1.15,2013-05-28 07:22:00,
2013-05-28 00:27:00,62.6,58.0,29.86,South,172,2.0,2.0,85,0.00,,,0.00,Wunderground v.1.15,2013-05-28 07:27:00,
2013-05-28 00:37:00,62.4,58.2,29.85,South,173,2.0,2.0,86,0.00,,,0.00,Wunderground v.1.15,2013-05-28 07:37:00,
2013-05-28 00:42:00,62.3,58.1,29.85,South,173,1.0,2.0,86,0.00,,,0.00,Wunderground v.1.15,2013-05-28 07:42:00,
2013-05-28 00:47:00,62.3,58.1,29.85,South,173,1.0,2.0,86,0.00,,,0.00,Wunderground v.1.15,2013-05-28 07:47:00,
2013-05-28 00:52:00,62.2,58.0,29.85,South,173,1.0,1.0,86,0.00,,,0.00,Wunderground v.1.15,2013-05-28 07:52:00,
2013-05-28 00:57:00,62.1,58.2,29.85,South,173,1.0,1.0,87,0.00,,,0.00,Wunderground v.1.15,2013-05-28 07:57:00,
2013-05-28 01:07:00,62.0,58.1,29.86,South,173,0.0,1.0,87,0.00,,,0.00,Wunderground v.1.15,2013-05-28 08:07:00,
2013-05-28 01:12:00,62.0,58.1,29.86,South,173,1.0,1.0,87,0.00,,,0.00,Wunderground v.1.15,2013-05-28 08:12:00,
2013-05-28 01:17:00,61.9,58.0,29.86,South,173,0.0,1.0,87,0.00,,,0.00,Wunderground v.1.15,2013-05-28 08:17:00,
2013-05-28 01:27:00,61.7,57.8,29.85,South,173,0.0,0.0,87,0.00,,,0.00,Wunderground v.1.15,2013-05-28 08:27:00,
2013-05-28 01:32:00,61.5,57.6,29.86,South,173,0.0,0.0,87,0.00,,,0.00,Wunderground v.1.15,2013-05-28 08:32:00,
2013-05-28 01:42:00,61.4,57.8,29.85,South,173,0.0,1.0,88,0.00,,,0.00,Wunderground v.1.15,2013-05-28 08:42:00,
2013-05-28 01:47:00,61.4,57.5,29.85,South,173,0.0,1.0,87,0.00,,,0.00,Wunderground v.1.15,2013-05-28 08:47:00,
2013-05-28 01:57:00,61.4,57.8,29.84,South,173,0.0,0.0,88,0.00,,,0.00,Wunderground v.1.15,2013-05-28 08:57:00,
2013-05-28 02:02:00,61.3,57.4,29.84,South,173,0.0,0.0,87,0.00,,,0.00,Wunderground v.1.15,2013-05-28 09:02:00,
2013-05-28 02:07:00,61.2,57.3,29.84,South,173,0.0,0.0,87,0.00,,,0.00,Wunderground v.1.15,2013-05-28 09:07:00,
2013-05-28 02:17:00,61.1,57.5,29.84,South,173,0.0,0.0,88,0.00,,,0.00,Wunderground v.1.15,2013-05-28 09:17:00,
2013-05-28 02:27:00,61.0,57.4,29.85,South,173,0.0,0.0,88,0.00,,,0.00,Wunderground v.1.15,2013-05-28 09:27:00,
2013-05-28 02:37:00,60.8,57.2,29.85,South,173,0.0,0.0,88,0.00,,,0.00,Wunderground v.1.15,2013-05-28 09:37:00,
2013-05-28 02:47:00,60.9,57.3,29.85,South,173,0.0,0.0,88,0.00,,,0.00,Wunderground v.1.15,2013-05-28 09:47:00,
2013-05-28 02:52:00,61.0,57.4,29.85,South,173,0.0,0.0,88,0.00,,,0.00,Wunderground v.1.15,2013-05-28 09:52:00,
2013-05-28 02:57:00,61.1,57.5,29.84,South,173,0.0,0.0,88,0.00,,,0.00,Wunderground v.1.15,2013-05-28 09:57:00,
2013-05-28 03:07:00,61.3,57.4,29.83,South,173,1.0,2.0,87,0.00,,,0.00,Wunderground v.1.15,2013-05-28 10:07:00,
2013-05-28 03:17:00,61.5,57.6,29.83,South,173,1.0,1.0,87,0.00,,,0.00,Wunderground v.1.15,2013-05-28 10:17:00,
2013-05-28 03:22:00,61.6,57.7,29.83,South,173,1.0,1.0,87,0.00,,,0.00,Wunderground v.1.15,2013-05-28 10:22:00,
2013-05-28 03:32:00,61.7,57.8,29.83,South,173,0.0,0.0,87,0.00,,,0.00,Wunderground v.1.15,2013-05-28 10:32:00,
2013-05-28 03:37:00,61.8,57.9,29.83,South,173,0.0,0.0,87,0.00,,,0.00,Wunderground v.1.15,2013-05-28 10:37:00,
2013-05-28 03:42:00,61.9,58.0,29.83,South,173,0.0,0.0,87,0.00,,,0.00,Wunderground v.1.15,2013-05-28 10:42:00,
2013-05-28 03:47:00,62.0,58.1,29.82,SSE,161,1.0,1.0,87,0.00,,,0.00,Wunderground v.1.15,2013-05-28 10:47:00,
2013-05-28 03:57:00,62.1,58.2,29.83,SSE,161,1.0,2.0,87,0.00,,,0.00,Wunderground v.1.15,2013-05-28 10:57:00,
2013-05-28 04:07:00,62.2,58.0,29.83,SSE,161,0.0,1.0,86,0.00,,,0.00,Wunderground v.1.15,2013-05-28 11:07:00,
2013-05-28 04:12:00,62.2,58.0,29.83,SSE,161,0.0,1.0,86,0.00,,,0.00,Wunderground v.1.15,2013-05-28 11:12:00,
2013-05-28 04:22:00,62.2,58.0,29.83,SSE,161,1.0,1.0,86,0.00,,,0.00,Wunderground v.1.15,2013-05-28 11:22:00,
2013-05-28 04:27:00,62.2,58.0,29.83,SSE,161,1.0,1.0,86,0.00,,,0.00,Wunderground v.1.15,2013-05-28 11:27:00,
2013-05-28 04:37:00,62.2,58.0,29.82,SSE,161,1.0,2.0,86,0.00,,,0.00,Wunderground v.1.15,2013-05-28 11:37:00,
2013-05-28 04:42:00,62.2,58.0,29.82,SSE,161,1.0,1.0,86,0.00,,,0.00,Wunderground v.1.15,2013-05-28 11:42:00,
2013-05-28 04:52:00,62.2,58.0,29.82,SE,134,1.0,1.0,86,0.00,,,0.00,Wunderground v.1.15,2013-05-28 11:52:00,
2013-05-28 04:57:00,62.1,57.9,29.82,SE,134,0.0,1.0,86,0.00,,,0.00,Wunderground v.1.15,2013-05-28 11:57:00,
2013-05-28 05:07:00,62.1,57.9,29.82,SE,134,0.0,0.0,86,0.00,,,0.00,Wunderground v.1.15,2013-05-28 12:07:00,
2013-05-28 05:12:00,62.1,57.5,29.82,SE,134,0.0,0.0,85,0.00,,,0.00,Wunderground v.1.15,2013-05-28 12:12:00,
2013-05-28 05:22:00,62.2,57.6,29.81,ESE,113,1.0,2.0,85,0.00,,,0.00,Wunderground v.1.15,2013-05-28 12:22:00,
2013-05-28 05:32:00,62.2,57.6,29.81,SSE,155,2.0,2.0,85,0.00,,,0.00,Wunderground v.1.15,2013-05-28 12:32:00,
2013-05-28 05:42:00,62.3,57.7,29.82,SSE,167,2.0,2.0,85,0.00,,,0.00,Wunderground v.1.15,2013-05-28 12:42:00,
2013-05-28 05:47:00,62.3,57.7,29.82,South,182,2.0,2.0,85,0.00,,,0.00,Wunderground v.1.15,2013-05-28 12:47:00,
2013-05-28 05:57:00,62.4,57.8,29.82,South,182,1.0,1.0,85,0.00,,,0.00,Wunderground v.1.15,2013-05-28 12:57:00,
2013-05-28 06:07:00,62.5,57.9,29.82,SE,133,1.0,4.0,85,0.00,,,0.00,Wunderground v.1.15,2013-05-28 13:07:00,
2013-05-28 06:17:00,62.6,57.7,29.82,SSE,157,2.0,4.0,84,0.00,,,0.00,Wunderground v.1.15,2013-05-28 13:17:00,
2013-05-28 06:27:00,62.6,57.7,29.83,South,178,2.0,3.0,84,0.00,,,0.00,Wunderground v.1.15,2013-05-28 13:27:00,
2013-05-28 06:37:00,62.7,57.8,29.83,South,178,1.0,3.0,84,0.00,,,0.00,Wunderground v.1.15,2013-05-28 13:37:00,
2013-05-28 06:42:00,62.8,57.9,29.83,South,178,2.0,2.0,84,0.00,,,0.00,Wunderground v.1.15,2013-05-28 13:42:00,
2013-05-28 06:47:00,62.9,58.0,29.82,South,178,2.0,3.0,84,0.00,,,0.00,Wunderground v.1.15,2013-05-28 13:47:00,
2013-05-28 06:57:00,63.0,57.8,29.82,SW,227,3.0,4.0,83,0.00,,,0.00,Wunderground v.1.15,2013-05-28 13:57:00,
2013-05-28 07:02:00,63.1,57.9,29.83,South,182,3.0,3.0,83,0.00,,,0.00,Wunderground v.1.15,2013-05-28 14:02:00,
2013-05-28 07:12:00,63.1,57.5,29.83,South,175,1.0,1.0,82,0.00,,,0.00,Wunderground v.1.15,2013-05-28 14:12:00,
2013-05-28 07:17:00,63.1,57.5,29.83,SE,134,1.0,1.0,82,0.00,,,0.00,Wunderground v.1.15,2013-05-28 14:17:00,
2013-05-28 07:22:00,63.2,57.9,29.83,SE,142,1.0,3.0,83,0.00,,,0.00,Wunderground v.1.15,2013-05-28 14:22:00,
2013-05-28 07:27:00,63.2,57.6,29.84,SE,142,1.0,3.0,82,0.00,,,0.00,Wunderground v.1.15,2013-05-28 14:27:00,
2013-05-28 07:32:00,63.3,57.7,29.83,SE,142,2.0,2.0,82,0.00,,,0.00,Wunderground v.1.15,2013-05-28 14:32:00,
2013-05-28 07:37:00,63.4,57.8,29.83,South,182,2.0,3.0,82,0.00,,,0.00,Wunderground v.1.15,2013-05-28 14:37:00,
2013-05-28 07:47:00,63.6,57.7,29.82,South,178,3.0,4.0,81,0.00,,,0.00,Wunderground v.1.15,2013-05-28 14:47:00,
2013-05-28 07:52:00,63.7,57.8,29.83,SSW,197,3.0,3.0,81,0.00,,,0.00,Wunderground v.1.15,2013-05-28 14:52:00,
2013-05-28 07:57:00,63.9,58.0,29.82,SSW,198,3.0,4.0,81,0.00,,,0.00,Wunderground v.1.15,2013-05-28 14:57:00,
2013-05-28 08:07:00,64.1,57.8,29.83,South,172,2.0,3.0,80,0.00,,,0.00,Wunderground v.1.15,2013-05-28 15:07:00,
2013-05-28 08:17:00,64.5,57.8,29.83,ESE,122,1.0,2.0,79,0.00,,,0.00,Wunderground v.1.15,2013-05-28 15:17:00,
2013-05-28 08:22:00,64.7,58.0,29.83,SE,129,2.0,2.0,79,0.00,,,0.00,Wunderground v.1.15,2013-05-28 15:22:00,
2013-05-28 08:27:00,65.0,58.3,29.83,SSE,153,2.0,3.0,79,0.00,,,0.00,Wunderground v.1.15,2013-05-28 15:27:00,
2013-05-28 08:32:00,65.1,58.1,29.83,South,182,2.0,2.0,78,0.00,,,0.00,Wunderground v.1.15,2013-05-28 15:32:00,
2013-05-28 08:37:00,65.1,58.1,29.84,SSE,149,3.0,3.0,78,0.00,,,0.00,Wunderground v.1.15,2013-05-28 15:37:00,
2013-05-28 08:47:00,65.5,58.1,29.83,SE,125,2.0,3.0,77,0.00,,,0.00,Wunderground v.1.15,2013-05-28 15:47:00,
2013-05-28 08:57:00,66.1,58.3,29.83,SSW,205,2.0,3.0,76,0.00,,,0.00,Wunderground v.1.15,2013-05-28 15:57:00,
2013-05-28 09:07:00,66.7,58.5,29.83,SSE,154,2.0,2.0,75,0.00,,,0.00,Wunderground v.1.15,2013-05-28 16:07:00,
2013-05-28 09:12:00,67.2,58.6,29.82,SSE,152,2.0,3.0,74,0.00,,,0.00,Wunderground v.1.15,2013-05-28 16:12:00,
2013-05-28 09:22:00,67.2,58.2,29.82,East,100,2.0,2.0,73,0.00,,,0.00,Wunderground v.1.15,2013-05-28 16:22:00,
2013-05-28 09:27:00,67.3,58.3,29.82,SE,128,2.0,3.0,73,0.00,,,0.00,Wunderground v.1.15,2013-05-28 16:27:00,
2013-05-28 09:37:00,67.4,58.4,29.82,SSE,163,2.0,2.0,73,0.00,,,0.00,Wunderground v.1.15,2013-05-28 16:37:00,
2013-05-28 09:42:00,67.5,58.5,29.82,SE,133,2.0,2.0,73,0.00,,,0.00,Wunderground v.1.15,2013-05-28 16:42:00,
2013-05-28 09:47:00,67.6,58.6,29.82,SSE,153,2.0,2.0,73,0.00,,,0.00,Wunderground v.1.15,2013-05-28 16:47:00,
2013-05-28 09:52:00,67.8,58.4,29.82,SSW,211,2.0,3.0,72,0.00,,,0.00,Wunderground v.1.15,2013-05-28 16:52:00,
2013-05-28 09:57:00,67.7,58.3,29.83,SW,231,2.0,3.0,72,0.00,,,0.00,Wunderground v.1.15,2013-05-28 16:57:00,
2013-05-28 10:02:00,67.9,58.5,29.83,East,101,1.0,2.0,72,0.00,,,0.00,Wunderground v.1.15,2013-05-28 17:02:00,
2013-05-28 10:12:00,68.5,59.1,29.82,SE,142,2.0,2.0,72,0.00,,,0.00,Wunderground v.1.15,2013-05-28 17:12:00,
2013-05-28 10:22:00,69.4,58.4,29.83,WSW,251,2.0,3.0,68,0.00,,,0.00,Wunderground v.1.15,2013-05-28 17:22:00,
2013-05-28 10:27:00,69.2,59.0,29.83,ESE,106,2.0,3.0,70,0.00,,,0.00,Wunderground v.1.15,2013-05-28 17:27:00,
2013-05-28 10:37:00,70.0,59.0,29.83,SSE,168,3.0,4.0,68,0.00,,,0.00,Wunderground v.1.15,2013-05-28 17:37:00,
2013-05-28 10:42:00,70.2,59.1,29.83,SSE,159,3.0,4.0,68,0.00,,,0.00,Wunderground v.1.15,2013-05-28 17:42:00,
2013-05-28 10:47:00,70.5,59.0,29.83,SW,221,3.0,4.0,67,0.00,,,0.00,Wunderground v.1.15,2013-05-28 17:47:00,
2013-05-28 10:52:00,70.5,59.0,29.82,SSE,152,3.0,3.0,67,0.00,,,0.00,Wunderground v.1.15,2013-05-28 17:52:00,
2013-05-28 11:02:00,70.3,58.8,29.82,WSW,239,3.0,7.0,67,0.00,,,0.00,Wunderground v.1.15,2013-05-28 18:02:00,
2013-05-28 11:07:00,70.5,59.0,29.82,South,184,4.0,7.0,67,0.00,,,0.00,Wunderground v.1.15,2013-05-28 18:07:00,
2013-05-28 11:17:00,71.5,60.0,29.81,SSE,167,3.0,4.0,67,0.00,,,0.00,Wunderground v.1.15,2013-05-28 18:17:00,
2013-05-28 11:22:00,72.2,59.8,29.82,SW,221,3.0,5.0,65,0.00,,,0.00,Wunderground v.1.15,2013-05-28 18:22:00,
2013-05-28 11:27:00,72.4,59.5,29.81,SSE,157,3.0,5.0,64,0.00,,,0.00,Wunderground v.1.15,2013-05-28 18:27:00,
2013-05-28 11:37:00,72.9,60.0,29.81,SW,233,3.0,3.0,64,0.00,,,0.00,Wunderground v.1.15,2013-05-28 18:37:00,
2013-05-28 11:42:00,72.9,60.4,29.81,SSW,194,4.0,6.0,65,0.00,,,0.00,Wunderground v.1.15,2013-05-28 18:42:00,
2013-05-28 11:47:00,73.3,59.9,29.81,WSW,242,5.0,8.0,63,0.00,,,0.00,Wunderground v.1.15,2013-05-28 18:47:00,
2013-05-28 11:52:00,73.0,60.1,29.80,SSW,205,6.0,6.0,64,0.00,,,0.00,Wunderground v.1.15,2013-05-28 18:52:00,
2013-05-28 11:57:00,73.2,60.3,29.80,South,186,6.0,6.0,64,0.00,,,0.00,Wunderground v.1.15,2013-05-28 18:57:00,
2013-05-28 12:02:00,73.3,60.4,29.80,SSW,193,5.0,5.0,64,0.00,,,0.00,Wunderground v.1.15,2013-05-28 19:02:00,
2013-05-28 12:07:00,73.5,60.6,29.80,SSE,154,6.0,6.0,64,0.00,,,0.00,Wunderground v.1.15,2013-05-28 19:07:00,
2013-05-28 12:17:00,73.0,60.5,29.80,SSW,198,5.0,7.0,65,0.00,,,0.00,Wunderground v.1.15,2013-05-28 19:17:00,
2013-05-28 12:22:00,73.3,60.8,29.80,ESE,118,4.0,4.0,65,0.00,,,0.00,Wunderground v.1.15,2013-05-28 19:22:00,
2013-05-28 12:27:00,73.5,61.0,29.80,SSW,205,5.0,5.0,65,0.00,,,0.00,Wunderground v.1.15,2013-05-28 19:27:00,
2013-05-28 12:32:00,73.1,60.6,29.80,SSE,161,6.0,6.0,65,0.00,,,0.00,Wunderground v.1.15,2013-05-28 19:32:00,
2013-05-28 12:42:00,73.5,61.0,29.80,SW,236,5.0,6.0,65,0.00,,,0.00,Wunderground v.1.15,2013-05-28 19:42:00,
2013-05-28 12:52:00,73.5,60.6,29.79,SSE,166,6.0,6.0,64,0.00,,,0.00,Wunderground v.1.15,2013-05-28 19:52:00,
2013-05-28 12:57:00,73.9,61.0,29.79,South,190,5.0,6.0,64,0.00,,,0.00,Wunderground v.1.15,2013-05-28 19:57:00,
2013-05-28 13:07:00,74.8,60.9,29.78,SW,216,6.0,6.0,62,0.00,,,0.00,Wunderground v.1.15,2013-05-28 20:07:00,
2013-05-28 13:12:00,74.7,60.8,29.78,SW,215,6.0,6.0,62,0.00,,,0.00,Wunderground v.1.15,2013-05-28 20:12:00,
2013-05-28 13:22:00,74.4,60.5,29.78,South,190,5.0,5.0,62,0.00,,,0.00,Wunderground v.1.15,2013-05-28 20:22:00,
2013-05-28 13:27:00,74.3,60.9,29.78,SSW,200,6.0,6.0,63,0.00,,,0.00,Wunderground v.1.15,2013-05-28 20:27:00,
2013-05-28 13:32:00,74.3,61.3,29.78,South,175,5.0,5.0,64,0.00,,,0.00,Wunderground v.1.15,2013-05-28 20:32:00,
2013-05-28 13:42:00,74.8,61.4,29.77,South,181,5.0,5.0,63,0.00,,,0.00,Wunderground v.1.15,2013-05-28 20:42:00,
2013-05-28 13:47:00,75.4,61.0,29.77,SSW,200,4.0,7.0,61,0.00,,,0.00,Wunderground v.1.15,2013-05-28 20:47:00,
2013-05-28 13:52:00,75.7,60.8,29.76,SSW,209,5.0,5.0,60,0.00,,,0.00,Wunderground v.1.15,2013-05-28 20:52:00,
2013-05-28 13:57:00,76.0,60.6,29.76,SW,217,6.0,7.0,59,0.00,,,0.00,Wunderground v.1.15,2013-05-28 20:57:00,
2013-05-28 14:07:00,75.8,59.5,29.77,SW,217,6.0,6.0,57,0.00,,,0.00,Wunderground v.1.15,2013-05-28 21:07:00,
2013-05-28 14:12:00,75.8,60.0,29.76,South,174,5.0,5.0,58,0.00,,,0.00,Wunderground v.1.15,2013-05-28 21:12:00,
2013-05-28 14:22:00,76.3,60.4,29.76,South,171,5.0,7.0,58,0.00,,,0.00,Wunderground v.1.15,2013-05-28 21:22:00,
2013-05-28 14:27:00,75.9,59.6,29.76,SW,236,6.0,7.0,57,0.00,,,0.00,Wunderground v.1.15,2013-05-28 21:27:00,
2013-05-28 14:32:00,76.0,60.2,29.76,SSW,207,6.0,8.0,58,0.00,,,0.00,Wunderground v.1.15,2013-05-28 21:32:00,
2013-05-28 14:37:00,75.9,60.1,29.76,SE,127,6.0,8.0,58,0.00,,,0.00,Wunderground v.1.15,2013-05-28 21:37:00,
2013-05-28 14:42:00,76.0,59.7,29.76,South,170,5.0,5.0,57,0.00,,,0.00,Wunderground v.1.15,2013-05-28 21:42:00,
2013-05-28 14:52:00,76.5,59.6,29.76,SE,140,5.0,5.0,56,0.00,,,0.00,Wunderground v.1.15,2013-05-28 21:52:00,
2013-05-28 15:02:00,77.1,59.7,29.75,SE,130,5.0,6.0,55,0.00,,,0.00,Wunderground v.1.15,2013-05-28 22:02:00,
2013-05-28 15:07:00,77.4,59.5,29.75,SE,128,5.0,6.0,54,0.00,,,0.00,Wunderground v.1.15,2013-05-28 22:07:00,
2013-05-28 15:12:00,77.2,58.7,29.75,ESE,117,4.0,4.0,53,0.00,,,0.00,Wunderground v.1.15,2013-05-28 22:12:00,
2013-05-28 15:17:00,77.4,59.5,29.75,ESE,117,5.0,5.0,54,0.00,,,0.00,Wunderground v.1.15,2013-05-28 22:17:00,
2013-05-28 15:22:00,77.6,59.1,29.75,SSE,149,5.0,5.0,53,0.00,,,0.00,Wunderground v.1.15,2013-05-28 22:22:00,
2013-05-28 15:32:00,77.6,60.2,29.76,SSE,168,5.0,5.0,55,0.00,,,0.00,Wunderground v.1.15,2013-05-28 22:32:00,
2013-05-28 15:37:00,77.1,60.7,29.75,SE,131,5.0,5.0,57,0.00,,,0.00,Wunderground v.1.15,2013-05-28 22:37:00,
2013-05-28 15:47:00,77.1,56.5,29.75,SW,227,6.0,8.0,49,0.00,,,0.00,Wunderground v.1.15,2013-05-28 22:47:00,
2013-05-28 15:52:00,77.5,56.8,29.75,WSW,246,6.0,6.0,49,0.00,,,0.00,Wunderground v.1.15,2013-05-28 22:52:00,
2013-05-28 16:02:00,77.1,57.6,29.74,NW,312,7.0,7.0,51,0.00,,,0.00,Wunderground v.1.15,2013-05-28 23:02:00,
2013-05-28 16:07:00,77.2,57.1,29.74,SW,227,6.0,7.0,50,0.00,,,0.00,Wunderground v.1.15,2013-05-28 23:07:00,
2013-05-28 16:12:00,77.3,57.8,29.74,SW,229,5.0,8.0,51,0.00,,,0.00,Wunderground v.1.15,2013-05-28 23:12:00,
2013-05-28 16:22:00,76.7,58.3,29.74,SSW,198,5.0,5.0,53,0.00,,,0.00,Wunderground v.1.15,2013-05-28 23:22:00,
2013-05-28 16:27:00,77.0,58.6,29.74,WSW,242,4.0,5.0,53,0.00,,,0.00,Wunderground v.1.15,2013-05-28 23:27:00,
2013-05-28 16:37:00,77.2,58.7,29.74,South,188,6.0,6.0,53,0.00,,,0.00,Wunderground v.1.15,2013-05-28 23:37:00,
2013-05-28 16:47:00,76.8,58.9,29.74,West,277,6.0,6.0,54,0.00,,,0.00,Wunderground v.1.15,2013-05-28 23:47:00,
2013-05-28 16:52:00,76.7,58.8,29.74,WSW,237,6.0,10.0,54,0.00,,,0.00,Wunderground v.1.15,2013-05-28 23:52:00,
2013-05-28 16:57:00,76.8,59.4,29.73,West,264,6.0,10.0,55,0.00,,,0.00,Wunderground v.1.15,2013-05-28 23:57:00,
2013-05-28 17:07:00,77.2,59.3,29.73,SW,232,5.0,6.0,54,0.00,,,0.00,Wunderground v.1.15,2013-05-29 00:07:00,
2013-05-28 17:12:00,76.9,60.0,29.72,SW,235,5.0,5.0,56,0.00,,,0.00,Wunderground v.1.15,2013-05-29 00:12:00,
2013-05-28 17:22:00,76.9,59.5,29.72,SW,227,6.0,6.0,55,0.00,,,0.00,Wunderground v.1.15,2013-05-29 00:22:00,
2013-05-28 17:27:00,76.9,59.5,29.72,South,182,5.0,6.0,55,0.00,,,0.00,Wunderground v.1.15,2013-05-29 00:27:00,
2013-05-28 17:37:00,76.4,59.5,29.72,SW,231,6.0,9.0,56,0.00,,,0.00,Wunderground v.1.15,2013-05-29 00:37:00,
2013-05-28 17:42:00,76.4,60.0,29.72,SW,236,6.0,7.0,57,0.00,,,0.00,Wunderground v.1.15,2013-05-29 00:42:00,
2013-05-28 17:52:00,75.8,59.5,29.72,SW,219,8.0,8.0,57,0.00,,,0.00,Wunderground v.1.15,2013-05-29 00:52:00,
2013-05-28 17:57:00,75.8,60.0,29.71,SSW,199,7.0,8.0,58,0.00,,,0.00,Wunderground v.1.15,2013-05-29 00:57:00,
2013-05-28 18:07:00,76.3,59.9,29.71,SSW,213,4.0,11.0,57,0.00,,,0.00,Wunderground v.1.15,2013-05-29 01:07:00,
2013-05-28 18:12:00,75.7,59.4,29.71,SW,225,6.0,6.0,57,0.00,,,0.00,Wunderground v.1.15,2013-05-29 01:12:00,
2013-05-28 18:17:00,75.4,59.6,29.71,SW,227,7.0,7.0,58,0.00,,,0.00,Wunderground v.1.15,2013-05-29 01:17:00,
2013-05-28 18:22:00,75.3,60.0,29.71,SW,234,6.0,6.0,59,0.00,,,0.00,Wunderground v.1.15,2013-05-29 01:22:00,
2013-05-28 18:27:00,75.4,60.5,29.71,South,174,5.0,8.0,60,0.00,,,0.00,Wunderground v.1.15,2013-05-29 01:27:00,
2013-05-28 18:32:00,74.4,61.9,29.71,SSE,148,5.0,5.0,65,0.00,,,0.00,Wunderground v.1.15,2013-05-29 01:32:00,
2013-05-28 18:37:00,73.8,61.7,29.71,ESE,118,4.0,8.0,66,0.00,,,0.00,Wunderground v.1.15,2013-05-29 01:37:00,
2013-05-28 18:47:00,73.2,61.6,29.72,SE,130,4.0,7.0,67,0.00,,,0.00,Wunderground v.1.15,2013-05-29 01:47:00,
2013-05-28 18:52:00,73.2,62.0,29.72,SE,142,3.0,4.0,68,0.00,,,0.00,Wunderground v.1.15,2013-05-29 01:52:00,
2013-05-28 19:02:00,72.4,61.7,29.72,SE,146,3.0,5.0,69,0.00,,,0.00,Wunderground v.1.15,2013-05-29 02:02:00,
2013-05-28 19:12:00,71.5,61.2,29.71,SSE,150,4.0,5.0,70,0.00,,,0.00,Wunderground v.1.15,2013-05-29 02:12:00,
2013-05-28 19:22:00,71.0,61.5,29.71,ESE,119,4.0,4.0,72,0.00,,,0.00,Wunderground v.1.15,2013-05-29 02:22:00,
2013-05-28 19:32:00,70.8,61.7,29.71,SE,136,3.0,3.0,73,0.00,,,0.00,Wunderground v.1.15,2013-05-29 02:32:00,
2013-05-28 19:37:00,70.5,61.4,29.71,SE,140,3.0,3.0,73,0.00,,,0.00,Wunderground v.1.15,2013-05-29 02:37:00,
2013-05-28 19:42:00,70.2,61.5,29.72,SSE,164,3.0,4.0,74,0.00,,,0.00,Wunderground v.1.15,2013-05-29 02:42:00,
2013-05-28 19:52:00,69.7,61.4,29.71,SSE,166,3.0,3.0,75,0.00,,,0.00,Wunderground v.1.15,2013-05-29 02:52:00,
2013-05-28 19:57:00,69.4,61.5,29.71,SE,144,3.0,3.0,76,0.00,,,0.00,Wunderground v.1.15,2013-05-29 02:57:00,
2013-05-28 20:02:00,69.2,61.3,29.71,ESE,107,3.0,3.0,76,0.00,,,0.00,Wunderground v.1.15,2013-05-29 03:02:00,
2013-05-28 20:12:00,68.7,61.2,29.72,SSE,157,3.0,3.0,77,0.00,,,0.00,Wunderground v.1.15,2013-05-29 03:12:00,
2013-05-28 20:22:00,68.1,61.0,29.72,SE,126,3.0,3.0,78,0.00,,,0.00,Wunderground v.1.15,2013-05-29 03:22:00,
2013-05-28 20:27:00,67.9,61.1,29.72,SE,126,3.0,3.0,79,0.00,,,0.00,Wunderground v.1.15,2013-05-29 03:27:00,
2013-05-28 20:37:00,67.6,61.2,29.72,SE,139,3.0,3.0,80,0.00,,,0.00,Wunderground v.1.15,2013-05-29 03:37:00,
2013-05-28 20:42:00,67.4,61.4,29.73,ESE,123,2.0,2.0,81,0.00,,,0.00,Wunderground v.1.15,2013-05-29 03:42:00,
2013-05-28 20:47:00,67.2,61.2,29.73,SSE,159,3.0,3.0,81,0.00,,,0.00,Wunderground v.1.15,2013-05-29 03:47:00,
2013-05-28 20:57:00,66.8,61.1,29.73,SSE,155,2.0,2.0,82,0.00,,,0.00,Wunderground v.1.15,2013-05-29 03:57:00,
2013-05-28 21:02:00,66.6,61.3,29.73,SSE,163,3.0,3.0,83,0.00,,,0.00,Wunderground v.1.15,2013-05-29 04:02:00,
2013-05-28 21:07:00,66.4,61.1,29.74,South,170,2.0,3.0,83,0.00,,,0.00,Wunderground v.1.15,2013-05-29 04:07:00,
2013-05-28 21:17:00,66.0,61.0,29.74,SSE,148,2.0,2.0,84,0.00,,,0.00,Wunderground v.1.15,2013-05-29 04:17:00,
2013-05-28 21:22:00,65.8,60.8,29.74,SSE,167,2.0,5.0,84,0.00,,,0.00,Wunderground v.1.15,2013-05-29 04:22:00,
2013-05-28 21:32:00,65.7,60.7,29.75,SSE,149,2.0,4.0,84,0.00,,,0.00,Wunderground v.1.15,2013-05-29 04:32:00,
2013-05-28 21:37:00,65.6,61.0,29.75,ESE,116,2.0,4.0,85,0.00,,,0.00,Wunderground v.1.15,2013-05-29 04:37:00,
2013-05-28 21:47:00,65.4,60.8,29.75,ESE,117,2.0,2.0,85,0.00,,,0.00,Wunderground v.1.15,2013-05-29 04:47:00,
2013-05-28 21:57:00,65.3,60.3,29.75,SE,128,2.0,7.0,84,0.00,,,0.00,Wunderground v.1.15,2013-05-29 04:57:00,
2013-05-28 22:02:00,65.3,60.3,29.76,SE,129,2.0,2.0,84,0.00,,,0.00,Wunderground v.1.15,2013-05-29 05:02:00,
2013-05-28 22:12:00,65.3,60.7,29.76,South,187,2.0,2.0,85,0.00,,,0.00,Wunderground v.1.15,2013-05-29 05:12:00,
2013-05-28 22:17:00,65.2,60.6,29.76,South,180,2.0,2.0,85,0.00,,,0.00,Wunderground v.1.15,2013-05-29 05:17:00,
2013-05-28 22:22:00,65.2,60.6,29.76,SE,132,2.0,2.0,85,0.00,,,0.00,Wunderground v.1.15,2013-05-29 05:22:00,
2013-05-28 22:32:00,65.1,60.5,29.76,SSE,163,2.0,2.0,85,0.00,,,0.00,Wunderground v.1.15,2013-05-29 05:32:00,
2013-05-28 22:37:00,65.0,60.4,29.76,ESE,103,1.0,2.0,85,0.00,,,0.00,Wunderground v.1.15,2013-05-29 05:37:00,
2013-05-28 22:42:00,65.0,60.4,29.76,SE,140,1.0,1.0,85,0.00,,,0.00,Wunderground v.1.15,2013-05-29 05:42:00,
2013-05-28 22:47:00,64.9,60.3,29.76,ESE,120,1.0,1.0,85,0.00,,,0.00,Wunderground v.1.15,2013-05-29 05:47:00,
2013-05-28 22:57:00,64.8,60.2,29.76,ESE,120,0.0,1.0,85,0.00,,,0.00,Wunderground v.1.15,2013-05-29 05:57:00,
2013-05-28 23:07:00,64.8,60.5,29.77,SSE,154,1.0,1.0,86,0.00,,,0.00,Wunderground v.1.15,2013-05-29 06:07:00,
2013-05-28 23:17:00,64.8,60.5,29.77,SE,134,1.0,2.0,86,0.00,,,0.00,Wunderground v.1.15,2013-05-29 06:17:00,
2013-05-28 23:27:00,64.7,60.1,29.77,ESE,123,1.0,1.0,85,0.00,,,0.00,Wunderground v.1.15,2013-05-29 06:27:00,
2013-05-28 23:37:00,64.7,60.1,29.76,SE,132,1.0,1.0,85,0.00,,,0.00,Wunderground v.1.15,2013-05-29 06:37:00,
2013-05-28 23:47:00,64.4,59.8,29.77,SE,132,0.0,0.0,85,0.00,,,0.00,Wunderground v.1.15,2013-05-29 06:47:00,
2013-05-28 23:57:00,64.3,59.7,29.76,SE,134,0.0,1.0,85,0.00,,,0.00,Wunderground v.1.15,2013-05-29 06:57:00,